Telstar 5

operational
NORAD ID: 24812 Int'l Des: 1997-026 Owner: LSKY Country: US
HEOCIRCULAR

Über Telstar 5

Beschreibung wird geladen...

Live-Position

3D-Globus wird geladen...

Nächste Überflüge

Höhenverlauf

Altitude vs Time

uPlot chart will show altitude changes over time

Zweizeiliger Elementsatz

1 24812U 97026A 26062.02073865 -.00000139 00000-0 00000+0 0 9991
2 24812 7.1258 69.0587 0003563 4.4516 102.9488 0.99092879105173
Epoch: 3. März 2026 • Age: 21 hours

Aktueller Status

Höhe 36108.4 km
Geschwindigkeit 3.06 km/s
Subsatellitenpunkt 5.31°N, 4.44°E
Startdatum 24. Mai 1997
Alter 28.7 years
Typ other

Technische Details

Klassifizierung Payload
Masse 3900.00 kg
Trockenmasse 1469.00 kg
Gesamtmasse 3900.00 kg
Länge 4.00 m
Durchmesser 2.20 m
Spannweite 30.00 m
Form Box + 2 Pan
Hersteller LOR
Bus-Typ FS-1300
Phasenstatus Unknown Active Status
Besitzer/Staat LSKY/US

Große Konstellationen

Loading constellations...